Location: Newark
(52.4787°S, 179.0532°W)
Time: 10:09:21
(UTC+00:00)

Transit 2A Rocket - Pass Details

Date: 23 November 2019
Orbit: 594 x 909 km, 66.7° (Epoch: 12 December)

Event Time Altitude Azimuth Distance (km) Brightness Sun altitude
Rises 20:33:45 0° 336° (NNW) 3,338 8.3 41.6°
Reaches altitude 10° 20:36:08 10° 339° (NNW) 2,455 7.8 42.0°
Maximum altitude 20:41:47 63° 58° (ENE) 990 7.3 42.7°
Drops below altitude 10° 20:47:49 10° 137° (SE) 2,614 8.0 43.6°
Sets 20:50:24 0° 139° (SE) 3,572 8.6 43.9°
